FW4213 Weather Reports


Display with metric or nautical units.
time (UTC)temp
F
wind
direction
speed
MPH
gust
MPH
rain 1hr
in
rain 24hr
in
rain mn
in
humidity
%
barometer
mb
20260510140031 49 138 2.0 7.0 0.00 0.00 0.00 83 1018.3
20260510134532 48 139 1.0 4.0 0.00 0.00 0.00 84 1018.3
20260510133032 47 128 2.0 4.0 0.00 0.00 0.00 81 1018.1
20260510130032 47 136 3.0 7.0 0.00 0.00 0.00 81 1018.1
20260510124531 47 122 1.0 4.0 0.00 0.00 0.00 79 1018.2
20260510123112 46 138 4.0 7.0 0.00 0.00 0.00 79 1018.3
20260510121530 46 152 3.0 5.0 0.00 0.00 0.00 81 1018.2
20260510120032 47 136 2.0 4.0 0.00 0.00 0.00 78 1018.1
20260510113032 48 149 3.0 5.0 0.00 0.00 0.00 73 1017.9
20260510111535 48 153 3.0 5.0 0.00 0.00 0.00 72 1017.8
20260510110152 49 145 4.0 6.0 0.00 0.00 0.00 71 1017.8
20260510104533 49 150 3.0 7.0 0.00 0.00 0.00 70 1018.0
20260510103108 50 143 4.0 9.0 0.00 0.00 0.00 70 1018.0
20260510101534 49 143 3.0 7.0 0.00 0.00 0.00 70 1017.9
20260510100034 50 139 4.0 7.0 0.00 0.00 0.00 68 1017.8
20260510094532 51 143 0.0 4.0 0.00 0.00 0.00 66 1017.8
20260510090035 53 139 5.0 9.0 0.00 0.00 0.00 60 1017.9
20260510084643 54 145 4.0 7.0 0.00 0.00 0.00 59 1018.1
20260510081530 55 150 5.0 9.0 0.00 0.00 0.00 56 1018.2
20260510080033 55 145 5.0 9.0 0.00 0.00 0.00 55 1018.2
20260510074538 56 145 5.0 10.0 0.00 0.00 0.00 55 1018.3
20260510073031 56 143 5.0 9.0 0.00 0.00 0.00 54 1018.3
20260510071532 57 145 5.0 9.0 0.00 0.00 0.00 53 1018.3
20260510070034 57 147 6.0 9.0 0.00 0.00 0.00 53 1018.2
20260510064533 57 146 5.0 9.0 0.00 0.00 0.00 53 1018.1
20260510063037 58 146 4.0 7.0 0.00 0.00 0.00 51 1018.0
20260510061610 59 152 4.0 8.0 0.00 0.00 0.00 50 1017.9
20260510060034 59 146 5.0 9.0 0.00 0.00 0.00 50 1017.8
20260510051534 58 131 3.0 8.0 0.00 0.00 0.00 56 1017.6
20260510050031 59 120 1.0 6.0 0.00 0.00 0.00 55 1017.5
20260510043109 62 124 2.0 6.0 0.00 0.00 0.00 51 1017.4
20260510041531 63 141 3.0 7.0 0.00 0.00 0.00 50 1017.1
20260510040032 64 144 3.0 6.0 0.00 0.00 0.00 49 1016.9
20260510034532 66 129 3.0 7.0 0.00 0.00 0.00 48 1016.7
20260510031531 68 148 5.0 10.0 0.00 0.00 0.00 48 1016.6
20260510030029 67 145 5.0 9.0 0.00 0.00 0.00 50 1016.6
20260510021532 74 101 1.0 3.0 0.00 0.00 0.00 53 1016.5
20260510013108 77 337 0.0 1.0 0.00 0.00 0.00 47 1016.7
20260510010056 79 337 0.0 2.0 0.00 0.00 0.00 33 1016.9
20260510001610 80 9 1.0 6.0 0.00 0.00 0.00 29 1017.3
20260509234529 81 355 2.0 6.0 0.00 0.00 0.00 28 1017.5
20260509233031 81 4 3.0 7.0 0.00 0.00 0.00 27 1017.7
20260509231643 80 348 3.0 7.0 0.00 0.00 0.00 27 1017.9
20260509230029 80 334 3.0 7.0 0.00 0.00 0.00 29 1018.3
20260509223031 79 18 1.0 5.0 0.00 0.00 0.00 31 1018.8
20260509221532 79 344 3.0 6.0 0.00 0.00 0.00 31 1019.0
20260509213035 77 350 4.0 8.0 0.00 0.00 0.00 38 1019.7
20260509210108 75 351 3.0 7.0 0.00 0.00 0.00 40 1020.2
20260509203032 73 344 4.0 9.0 0.00 0.00 0.00 45 1020.8
20260509200029 72 325 4.0 9.0 0.00 0.00 0.00 46 1021.1
20260509194535 71 340 4.0 8.0 0.00 0.00 0.00 47 1021.4
20260509193032 70 344 4.0 10.0 0.00 0.00 0.00 49 1021.6
20260509191529 70 338 4.0 9.0 0.00 0.00 0.00 51 1021.8
20260509190044 69 325 3.0 7.0 0.00 0.00 0.00 52 1021.9
20260509183032 68 347 2.0 6.0 0.00 0.00 0.00 51 1022.3
20260509181531 67 359 1.0 5.0 0.00 0.00 0.00 52 1022.4
20260509180028 66 352 2.0 5.0 0.00 0.00 0.00 54 1022.5
20260509174610 65 355 1.0 5.0 0.00 0.00 0.00 57 1022.5
20260509173031 64 337 2.0 4.0 0.00 0.00 0.00 58 1022.8
20260509164607 61 356 1.0 3.0 0.00 0.00 0.00 62 1023.2
20260509163037 60 351 1.0 4.0 0.00 0.00 0.00 64 1023.5
20260509161529 58 356 2.0 7.0 0.00 0.00 0.00 68 1023.7
20260509160029 58 349 1.0 5.0 0.00 0.00 0.00 69 1023.8
20260509153037 57 68 0.0 3.0 0.00 0.00 0.00 74 1023.7
20260509150111 53 23 2.0 5.0 0.00 0.00 0.00 81 1023.8
20260509144611 51 322 1.0 4.0 0.00 0.00 0.00 83 1023.8
20260509143035 50 184 0.0 3.0 0.00 0.00 0.00 86 1023.7
20260509141532 47 125 2.0 7.0 0.00 0.00 0.00 87 1023.6